Location: ????????
(56.0167°N, 38.0333°E)
Time: 14:04:43
(UTC+00:00)

Cosmos 1151 Rocket - Pass Details

Date: 19 May 2025
Orbit: 586 x 606 km, 82.5° (Epoch: 20 June)

Event Time Altitude Azimuth Distance (km) Brightness Sun altitude
Exits shadow 22:19:34 12° 235° (SW) 1,757 5.0 -13.1°
Maximum altitude 22:22:50 30° 294° (WNW) 1,078 4.4 -13.0°
Drops below altitude 10° 22:26:36 10° 356° (N) 1,926 6.8 -12.9°
Sets 22:29:02 0° 7° (N) 2,832 8.4 -12.8°
